DLH322 EDDF-LICJ

Flight info

Callsign DLH322
Flight time 1h 54m
Altitude 37000
Route ANEKI2L/18 ANEKI Y163 NATOR DCT TRA DCT RIPUS DCT GERSA DCT SOSON DCT ODINA DCT ELB DCT VELAD DCT TINTO DCT POKAV DCT BETOT DCT RUVIP DCT RONAB DCT GIANO
Aircraft A321/M-SDE2E3FGIJ1LORWXYZ/HB1

Departure

Time 2026-04-15 11:23
Airport Frankfurt Main Airport (EDDF)

Arrival

Time 2026-04-15 13:17
Airport Falcone–Borsellino Airport (LICJ)
Time Latitude Longitude Altitude Speed Heading
2026-04-15 10:25 50.04727 8.56292 364 ft 0 kts 321°
2026-04-15 11:11 50.04719 8.56302 356 ft 4 kts 320°
2026-04-15 11:11 50.04698 8.56329 359 ft 4 kts 316°
2026-04-15 11:12 50.04680 8.56359 361 ft 4 kts 309°
2026-04-15 11:12 50.04665 8.56394 356 ft 4 kts 286°
2026-04-15 11:12 50.04663 8.56421 363 ft 0 kts 251°
2026-04-15 11:12 50.04656 8.56390 356 ft 4 kts 249°
2026-04-15 11:13 50.04653 8.56380 358 ft 0 kts 250°
2026-04-15 11:16 50.04651 8.56372 356 ft 2 kts 250°
2026-04-15 11:16 50.04641 8.56327 363 ft 9 kts 250°
2026-04-15 11:16 50.04607 8.56184 362 ft 20 kts 250°
2026-04-15 11:16 50.04563 8.56003 357 ft 12 kts 240°
2026-04-15 11:17 50.04488 8.55938 356 ft 13 kts 198°
2026-04-15 11:17 50.04396 8.55909 362 ft 15 kts 176°
2026-04-15 11:17 50.04298 8.55956 361 ft 15 kts 159°
2026-04-15 11:17 50.04222 8.55922 359 ft 12 kts 202°
2026-04-15 11:18 50.04133 8.55946 358 ft 14 kts 161°
2026-04-15 11:18 50.04045 8.55925 357 ft 15 kts 238°
2026-04-15 11:18 50.04000 8.55747 350 ft 21 kts 249°
2026-04-15 11:18 50.03947 8.55526 355 ft 22 kts 250°
2026-04-15 11:19 50.03892 8.55295 351 ft 23 kts 249°
2026-04-15 11:19 50.03834 8.55052 357 ft 25 kts 250°
2026-04-15 11:19 50.03772 8.54792 349 ft 26 kts 249°
2026-04-15 11:19 50.03705 8.54517 347 ft 28 kts 250°
2026-04-15 11:20 50.03634 8.54221 347 ft 30 kts 249°
2026-04-15 11:20 50.03563 8.53924 337 ft 29 kts 250°
2026-04-15 11:20 50.03493 8.53628 337 ft 28 kts 249°
2026-04-15 11:20 50.03425 8.53353 337 ft 28 kts 249°
2026-04-15 11:21 50.03358 8.53064 333 ft 29 kts 250°
2026-04-15 11:21 50.03293 8.52788 333 ft 18 kts 251°
2026-04-15 11:21 50.03247 8.52646 332 ft 13 kts 228°
2026-04-15 11:21 50.03160 8.52595 331 ft 15 kts 181°
2026-04-15 11:22 50.03053 8.52597 333 ft 16 kts 179°
2026-04-15 11:22 50.02942 8.52597 332 ft 13 kts 179°
2026-04-15 11:22 50.02925 8.52598 332 ft 0 kts 179°
2026-04-15 11:22 50.02864 8.52599 335 ft 39 kts 179°
2026-04-15 11:23 50.02322 8.52606 331 ft 114 kts 179°
2026-04-15 11:23 50.01319 8.52621 385 ft 167 kts 180°
2026-04-15 11:23 50.00150 8.52623 1118 ft 166 kts 178°
2026-04-15 11:23 49.99000 8.52685 1888 ft 169 kts 176°
2026-04-15 11:24 49.97746 8.52782 2203 ft 191 kts 176°
2026-04-15 11:24 49.96343 8.52886 2453 ft 212 kts 176°
2026-04-15 11:24 49.94803 8.52998 2845 ft 226 kts 176°
2026-04-15 11:24 49.93214 8.53111 3619 ft 229 kts 176°
2026-04-15 11:25 49.91609 8.53228 4487 ft 232 kts 176°
2026-04-15 11:25 49.89992 8.53340 5326 ft 234 kts 176°
2026-04-15 11:25 49.88354 8.53453 6153 ft 237 kts 176°
2026-04-15 11:25 49.86697 8.53564 6972 ft 239 kts 176°
2026-04-15 11:26 49.85028 8.53677 7768 ft 241 kts 176°
2026-04-15 11:26 49.83343 8.53793 8548 ft 243 kts 177°
2026-04-15 11:26 49.81640 8.53903 9252 ft 250 kts 178°
2026-04-15 11:26 49.79822 8.53906 9550 ft 272 kts 180°
2026-04-15 11:27 49.77884 8.53820 10090 ft 282 kts 181°
2026-04-15 11:27 49.75879 8.53701 10517 ft 298 kts 182°
2026-04-15 11:27 49.73726 8.53566 10694 ft 321 kts 182°
2026-04-15 11:27 49.71455 8.53427 11142 ft 331 kts 182°
2026-04-15 11:28 49.69136 8.53298 11734 ft 336 kts 182°
2026-04-15 11:28 49.66786 8.53175 12355 ft 340 kts 182°
2026-04-15 11:28 49.65178 8.53093 12778 ft 343 kts 182°
2026-04-15 11:28 49.62785 8.52972 13392 ft 346 kts 182°
2026-04-15 11:29 49.60366 8.52851 13984 ft 350 kts 182°
2026-04-15 11:29 49.57915 8.52730 14585 ft 354 kts 182°
2026-04-15 11:29 49.55445 8.52606 15166 ft 357 kts 182°
2026-04-15 11:29 49.52951 8.52480 15720 ft 361 kts 182°
2026-04-15 11:30 49.50431 8.52352 16304 ft 365 kts 182°
2026-04-15 11:30 49.47886 8.52224 16885 ft 368 kts 182°
2026-04-15 11:30 49.45315 8.52096 17440 ft 371 kts 182°
2026-04-15 11:30 49.42723 8.51973 17969 ft 374 kts 182°
2026-04-15 11:31 49.40109 8.51850 18493 ft 377 kts 182°
2026-04-15 11:31 49.37470 8.51725 18985 ft 381 kts 182°
2026-04-15 11:31 49.34813 8.51599 19472 ft 384 kts 182°
2026-04-15 11:31 49.32124 8.51470 19954 ft 388 kts 182°
2026-04-15 11:32 49.29419 8.51337 20425 ft 391 kts 182°
2026-04-15 11:32 49.26680 8.51201 20887 ft 395 kts 182°
2026-04-15 11:32 49.23927 8.51060 21328 ft 398 kts 182°
2026-04-15 11:32 49.21149 8.50915 21744 ft 402 kts 182°
2026-04-15 11:33 49.18343 8.50772 22160 ft 405 kts 182°
2026-04-15 11:33 49.15517 8.50632 22570 ft 408 kts 182°
2026-04-15 11:33 49.12664 8.50494 22965 ft 411 kts 182°
2026-04-15 11:33 49.09797 8.50357 23365 ft 414 kts 182°
2026-04-15 11:34 49.06905 8.50221 23744 ft 417 kts 182°
2026-04-15 11:34 49.03994 8.50085 24110 ft 420 kts 182°
2026-04-15 11:34 49.01061 8.49946 24476 ft 423 kts 182°
2026-04-15 11:34 48.98064 8.49800 24821 ft 427 kts 182°
2026-04-15 11:35 48.95090 8.49654 25153 ft 431 kts 182°
2026-04-15 11:35 48.92070 8.49507 25495 ft 434 kts 182°
2026-04-15 11:35 48.89038 8.49360 25822 ft 438 kts 182°
2026-04-15 11:35 48.85983 8.49213 26148 ft 441 kts 182°
2026-04-15 11:36 48.82902 8.49067 26464 ft 445 kts 182°
2026-04-15 11:36 48.79796 8.48917 26779 ft 448 kts 182°
2026-04-15 11:36 48.76664 8.48759 27070 ft 452 kts 182°
2026-04-15 11:36 48.73518 8.48599 27357 ft 455 kts 182°
2026-04-15 11:37 48.70343 8.48442 27664 ft 458 kts 182°
2026-04-15 11:37 48.67144 8.48293 27940 ft 461 kts 181°
2026-04-15 11:37 48.63924 8.48148 28227 ft 464 kts 182°
2026-04-15 11:37 48.60684 8.48000 28501 ft 467 kts 182°
2026-04-15 11:38 48.57433 8.47846 28781 ft 470 kts 182°
2026-04-15 11:38 48.54151 8.47688 29032 ft 473 kts 182°
2026-04-15 11:38 48.50845 8.47532 29274 ft 477 kts 181°
2026-04-15 11:38 48.47517 8.47378 29556 ft 480 kts 182°
2026-04-15 11:39 48.44173 8.47222 29826 ft 482 kts 182°
2026-04-15 11:39 48.40808 8.47061 30079 ft 485 kts 182°
2026-04-15 11:39 48.37418 8.46896 30356 ft 488 kts 182°
2026-04-15 11:39 48.34016 8.46730 30599 ft 491 kts 182°
2026-04-15 11:40 48.30591 8.46565 30858 ft 494 kts 182°
2026-04-15 11:40 48.27150 8.46402 31098 ft 496 kts 182°
2026-04-15 11:40 48.23697 8.46238 31327 ft 498 kts 182°
2026-04-15 11:40 48.20219 8.46076 31532 ft 501 kts 182°
2026-04-15 11:41 48.16731 8.45914 31743 ft 503 kts 182°
2026-04-15 11:41 48.13223 8.45752 31950 ft 505 kts 182°
2026-04-15 11:41 48.09714 8.45589 32213 ft 505 kts 182°
2026-04-15 11:41 48.06205 8.45426 32489 ft 505 kts 182°
2026-04-15 11:42 48.02691 8.45261 32747 ft 505 kts 182°
2026-04-15 11:42 47.99176 8.45097 33010 ft 506 kts 182°
2026-04-15 11:42 47.95653 8.44934 33266 ft 506 kts 182°
2026-04-15 11:42 47.92139 8.44769 33497 ft 507 kts 182°
2026-04-15 11:43 47.88610 8.44600 33735 ft 507 kts 182°
2026-04-15 11:43 47.85076 8.44432 33970 ft 508 kts 182°
2026-04-15 11:43 47.81546 8.44270 34210 ft 508 kts 182°
2026-04-15 11:43 47.78015 8.44111 34455 ft 508 kts 182°
2026-04-15 11:44 47.74481 8.43953 34725 ft 507 kts 182°
2026-04-15 11:44 47.70957 8.43793 34977 ft 507 kts 182°
2026-04-15 11:44 47.67442 8.43906 35245 ft 505 kts 174°
2026-04-15 11:44 47.63939 8.44418 35483 ft 505 kts 174°
2026-04-15 11:45 47.60456 8.44939 35768 ft 504 kts 173°
2026-04-15 11:45 47.56965 8.45460 36051 ft 502 kts 173°
2026-04-15 11:45 47.53486 8.45979 36299 ft 502 kts 173°
2026-04-15 11:45 47.50018 8.46493 36534 ft 501 kts 173°
2026-04-15 11:46 47.46562 8.47001 36786 ft 500 kts 173°
2026-04-15 11:46 47.43102 8.47506 37056 ft 498 kts 174°
2026-04-15 11:46 47.39658 8.48006 37212 ft 496 kts 173°
2026-04-15 11:46 47.36247 8.48500 37246 ft 491 kts 173°
2026-04-15 11:47 47.29474 8.49483 37240 ft 487 kts 173°
2026-04-15 11:47 47.22728 8.50472 37220 ft 486 kts 173°
2026-04-15 11:48 47.15995 8.51451 37220 ft 486 kts 173°
2026-04-15 11:48 47.09269 8.52437 37221 ft 486 kts 173°
2026-04-15 11:49 47.02534 8.53416 37244 ft 487 kts 173°
2026-04-15 11:49 46.95799 8.54387 37253 ft 487 kts 173°
2026-04-15 11:50 46.89059 8.55353 37257 ft 486 kts 173°
2026-04-15 11:50 46.82332 8.56320 37261 ft 486 kts 173°
2026-04-15 11:51 46.75606 8.57280 37254 ft 486 kts 173°
2026-04-15 11:51 46.68863 8.58245 37250 ft 486 kts 173°
2026-04-15 11:52 46.62138 8.59213 37240 ft 486 kts 173°
2026-04-15 11:52 46.55419 8.60168 37237 ft 485 kts 173°
2026-04-15 11:53 46.48696 8.61115 37224 ft 485 kts 173°
2026-04-15 11:53 46.41973 8.62062 37217 ft 485 kts 173°
2026-04-15 11:54 46.35251 8.63014 37213 ft 486 kts 173°
2026-04-15 11:54 46.28521 8.63966 37202 ft 485 kts 173°
2026-04-15 11:55 46.21794 8.64908 37177 ft 486 kts 173°
2026-04-15 11:55 46.15072 8.65844 37178 ft 486 kts 173°
2026-04-15 11:56 46.08462 8.67582 37168 ft 481 kts 158°
2026-04-15 11:56 46.02217 8.70986 37167 ft 479 kts 155°
2026-04-15 11:57 45.92854 8.76069 37170 ft 479 kts 156°
2026-04-15 11:58 45.86618 8.79435 37177 ft 478 kts 156°
2026-04-15 11:58 45.80355 8.82809 37176 ft 477 kts 156°
2026-04-15 11:59 45.74145 8.86158 37187 ft 477 kts 156°
2026-04-15 11:59 45.67952 8.89497 37194 ft 476 kts 156°
2026-04-15 12:00 45.61753 8.92824 37183 ft 475 kts 156°
2026-04-15 12:00 45.55562 8.96136 37193 ft 475 kts 156°
2026-04-15 12:01 45.49381 8.99431 37187 ft 474 kts 156°
2026-04-15 12:01 45.43212 9.02719 37193 ft 474 kts 156°
2026-04-15 12:02 45.37038 9.06005 37192 ft 473 kts 156°
2026-04-15 12:02 45.30864 9.09275 37193 ft 473 kts 157°
2026-04-15 12:03 45.25744 9.11986 37193 ft 472 kts 156°
2026-04-15 12:03 45.19594 9.15237 37192 ft 472 kts 156°
2026-04-15 12:04 45.12423 9.19007 37183 ft 471 kts 157°
2026-04-15 12:04 45.07315 9.21687 37179 ft 470 kts 157°
2026-04-15 12:05 45.01190 9.24906 37175 ft 469 kts 157°
2026-04-15 12:05 44.95063 9.28118 37182 ft 469 kts 157°
2026-04-15 12:06 44.88951 9.31301 37183 ft 469 kts 157°
2026-04-15 12:06 44.82832 9.34485 37188 ft 468 kts 157°
2026-04-15 12:07 44.76728 9.37662 37176 ft 467 kts 157°
2026-04-15 12:07 44.70625 9.40823 37169 ft 467 kts 157°
2026-04-15 12:08 44.64535 9.43964 37170 ft 466 kts 158°
2026-04-15 12:08 44.58448 9.47107 37160 ft 466 kts 157°
2026-04-15 12:09 44.52375 9.50241 37155 ft 464 kts 158°
2026-04-15 12:09 44.46316 9.53353 37147 ft 463 kts 158°
2026-04-15 12:10 44.40281 9.56450 37138 ft 462 kts 158°
2026-04-15 12:10 44.34255 9.59539 37126 ft 461 kts 158°
2026-04-15 12:11 44.28220 9.62622 37122 ft 462 kts 158°
2026-04-15 12:11 44.22178 9.65693 37112 ft 463 kts 158°
2026-04-15 12:12 44.16128 9.68761 37095 ft 462 kts 158°
2026-04-15 12:12 44.10087 9.71820 37088 ft 462 kts 158°
2026-04-15 12:13 44.04040 9.74884 37085 ft 462 kts 158°
2026-04-15 12:13 43.97992 9.77934 37085 ft 462 kts 158°
2026-04-15 12:14 43.91948 9.80976 37086 ft 462 kts 158°
2026-04-15 12:14 43.85900 9.84013 37084 ft 462 kts 158°
2026-04-15 12:15 43.79861 9.87044 37095 ft 461 kts 158°
2026-04-15 12:15 43.73823 9.90072 37084 ft 461 kts 158°
2026-04-15 12:16 43.67789 9.93093 37083 ft 462 kts 158°
2026-04-15 12:16 43.61746 9.96111 37082 ft 462 kts 158°
2026-04-15 12:17 43.55705 9.99112 37081 ft 461 kts 158°
2026-04-15 12:17 43.49667 10.02106 37079 ft 461 kts 158°
2026-04-15 12:18 43.43637 10.05092 37082 ft 460 kts 158°
2026-04-15 12:18 43.37614 10.08052 37083 ft 459 kts 159°
2026-04-15 12:19 43.31611 10.11008 37082 ft 458 kts 158°
2026-04-15 12:19 43.25623 10.13966 37081 ft 457 kts 158°
2026-04-15 12:20 43.19646 10.16911 37083 ft 456 kts 158°
2026-04-15 12:20 43.13684 10.19829 37082 ft 454 kts 159°
2026-04-15 12:21 43.07739 10.22736 37082 ft 454 kts 159°
2026-04-15 12:21 43.01796 10.25632 37080 ft 453 kts 159°
2026-04-15 12:22 42.95856 10.28522 37083 ft 453 kts 159°
2026-04-15 12:22 42.89885 10.31429 37083 ft 452 kts 159°
2026-04-15 12:23 42.84002 10.34281 37083 ft 452 kts 159°
2026-04-15 12:23 42.78046 10.37157 37082 ft 451 kts 159°
2026-04-15 12:24 42.72182 10.40004 37080 ft 450 kts 158°
2026-04-15 12:24 42.66357 10.43090 37079 ft 448 kts 156°
2026-04-15 12:25 42.60598 10.46335 37078 ft 448 kts 155°
2026-04-15 12:25 42.54836 10.49560 37079 ft 448 kts 156°
2026-04-15 12:26 42.49013 10.52731 37074 ft 448 kts 156°
2026-04-15 12:26 42.43264 10.55826 37071 ft 448 kts 156°
2026-04-15 12:27 42.37442 10.58968 37070 ft 447 kts 156°
2026-04-15 12:27 42.31666 10.62090 37072 ft 447 kts 156°
2026-04-15 12:28 42.25933 10.65195 37075 ft 446 kts 156°
2026-04-15 12:28 42.20138 10.68318 37074 ft 446 kts 156°
2026-04-15 12:29 42.14375 10.71418 37076 ft 445 kts 156°
2026-04-15 12:29 42.08621 10.74513 37076 ft 446 kts 156°
2026-04-15 12:30 42.02865 10.77597 37076 ft 445 kts 156°
2026-04-15 12:30 41.97098 10.80666 37075 ft 446 kts 156°
2026-04-15 12:31 41.91339 10.83733 37073 ft 445 kts 156°
2026-04-15 12:31 41.85585 10.86805 37074 ft 445 kts 156°
2026-04-15 12:32 41.79836 10.89864 37068 ft 445 kts 157°
2026-04-15 12:32 41.74089 10.92903 37068 ft 444 kts 156°
2026-04-15 12:33 41.68344 10.95944 37072 ft 444 kts 156°
2026-04-15 12:33 41.62601 10.98988 37072 ft 443 kts 157°
2026-04-15 12:34 41.56867 11.02008 37070 ft 442 kts 156°
2026-04-15 12:34 41.51140 11.05018 37064 ft 442 kts 157°
2026-04-15 12:35 41.45414 11.08022 37065 ft 442 kts 156°
2026-04-15 12:35 41.39695 11.11027 37062 ft 442 kts 156°
2026-04-15 12:36 41.33970 11.14029 37058 ft 442 kts 157°
2026-04-15 12:36 41.28250 11.17014 37052 ft 441 kts 157°
2026-04-15 12:37 41.22532 11.19994 37046 ft 441 kts 157°
2026-04-15 12:37 41.16813 11.22987 37036 ft 442 kts 157°
2026-04-15 12:38 41.11092 11.25964 37030 ft 442 kts 157°
2026-04-15 12:38 41.05372 11.28915 37029 ft 442 kts 157°
2026-04-15 12:39 40.99643 11.31873 37028 ft 441 kts 157°
2026-04-15 12:39 40.93922 11.34830 37030 ft 441 kts 157°
2026-04-15 12:40 40.88202 11.37791 37031 ft 442 kts 157°
2026-04-15 12:40 40.82477 11.40745 37024 ft 442 kts 157°
2026-04-15 12:41 40.76746 11.43688 37022 ft 442 kts 157°
2026-04-15 12:41 40.71014 11.46625 37022 ft 442 kts 157°
2026-04-15 12:42 40.65281 11.49561 37023 ft 442 kts 157°
2026-04-15 12:42 40.59551 11.52488 37020 ft 442 kts 157°
2026-04-15 12:43 40.53818 11.55416 37025 ft 442 kts 157°
2026-04-15 12:43 40.49051 11.57845 37024 ft 442 kts 157°
2026-04-15 12:44 40.43322 11.60751 37032 ft 442 kts 157°
2026-04-15 12:44 40.37588 11.63662 37027 ft 441 kts 157°
2026-04-15 12:45 40.31855 11.66556 37024 ft 442 kts 157°
2026-04-15 12:45 40.26117 11.69452 37022 ft 441 kts 157°
2026-04-15 12:46 40.20392 11.72353 37020 ft 441 kts 157°
2026-04-15 12:46 40.14629 11.75254 37018 ft 441 kts 158°
2026-04-15 12:47 40.08931 11.78097 37018 ft 441 kts 158°
2026-04-15 12:47 40.03204 11.80964 37017 ft 441 kts 157°
2026-04-15 12:48 39.97443 11.83869 37016 ft 441 kts 157°
2026-04-15 12:48 39.91752 11.86722 37013 ft 441 kts 157°
2026-04-15 12:49 39.86031 11.89588 37013 ft 440 kts 156°
2026-04-15 12:49 39.80348 11.92703 37010 ft 440 kts 154°
2026-04-15 12:49 39.77548 11.94321 36792 ft 440 kts 154°
2026-04-15 12:50 39.74764 11.95941 36540 ft 438 kts 154°
2026-04-15 12:50 39.71979 11.97549 36295 ft 438 kts 154°
2026-04-15 12:50 39.69187 11.99142 36053 ft 439 kts 155°
2026-04-15 12:50 39.66379 12.00727 35801 ft 441 kts 155°
2026-04-15 12:51 39.63557 12.02310 35544 ft 442 kts 155°
2026-04-15 12:51 39.60737 12.03884 35292 ft 440 kts 155°
2026-04-15 12:51 39.57927 12.05448 35043 ft 437 kts 155°
2026-04-15 12:51 39.55147 12.06991 34614 ft 433 kts 155°
2026-04-15 12:52 39.52388 12.08525 34129 ft 430 kts 155°
2026-04-15 12:52 39.49652 12.10055 33650 ft 426 kts 155°
2026-04-15 12:52 39.46942 12.11571 33179 ft 423 kts 155°
2026-04-15 12:52 39.44255 12.13067 32708 ft 418 kts 155°
2026-04-15 12:53 39.41591 12.14547 32235 ft 414 kts 155°
2026-04-15 12:53 39.38962 12.16011 31767 ft 409 kts 155°
2026-04-15 12:53 39.36360 12.17463 31315 ft 404 kts 155°
2026-04-15 12:53 39.33792 12.18894 30854 ft 400 kts 155°
2026-04-15 12:54 39.31255 12.20306 30413 ft 395 kts 155°
2026-04-15 12:54 39.28751 12.21694 29979 ft 389 kts 155°
2026-04-15 12:54 39.26279 12.23067 29543 ft 384 kts 155°
2026-04-15 12:54 39.23840 12.24421 29139 ft 379 kts 155°
2026-04-15 12:55 39.21428 12.25752 28736 ft 374 kts 156°
2026-04-15 12:55 39.19054 12.27061 28351 ft 369 kts 156°
2026-04-15 12:55 39.16709 12.28353 27966 ft 364 kts 156°
2026-04-15 12:55 39.14392 12.29630 27593 ft 359 kts 156°
2026-04-15 12:56 39.12112 12.30890 27230 ft 354 kts 156°
2026-04-15 12:56 39.09866 12.32130 26867 ft 349 kts 156°
2026-04-15 12:56 39.07652 12.33348 26502 ft 343 kts 156°
2026-04-15 12:56 39.05471 12.34548 26147 ft 338 kts 156°
2026-04-15 12:57 39.03323 12.35733 25798 ft 334 kts 156°
2026-04-15 12:57 39.01194 12.36905 25433 ft 332 kts 156°
2026-04-15 12:57 38.99072 12.38074 25076 ft 332 kts 156°
2026-04-15 12:57 38.96911 12.39265 24708 ft 342 kts 156°
2026-04-15 12:58 38.94726 12.40462 24308 ft 339 kts 156°
2026-04-15 12:58 38.92569 12.41642 23930 ft 335 kts 156°
2026-04-15 12:58 38.90440 12.42812 23539 ft 331 kts 155°
2026-04-15 12:58 38.88467 12.44280 23153 ft 326 kts 143°
2026-04-15 12:59 38.85487 12.48704 22086 ft 328 kts 127°
2026-04-15 12:59 38.84128 12.51034 21695 ft 324 kts 128°
2026-04-15 12:59 38.82779 12.53331 21304 ft 321 kts 128°
2026-04-15 13:00 38.81445 12.55605 20915 ft 317 kts 128°
2026-04-15 13:00 38.80127 12.57857 20538 ft 314 kts 128°
2026-04-15 13:00 38.78825 12.60081 20163 ft 310 kts 128°
2026-04-15 13:00 38.77533 12.62286 19787 ft 308 kts 128°
2026-04-15 13:01 38.76250 12.64472 19414 ft 306 kts 128°
2026-04-15 13:01 38.74973 12.66651 19037 ft 305 kts 128°
2026-04-15 13:01 38.73712 12.68810 18675 ft 302 kts 128°
2026-04-15 13:01 38.72455 12.70962 18364 ft 301 kts 128°
2026-04-15 13:02 38.71191 12.73110 18013 ft 301 kts 129°
2026-04-15 13:02 38.69935 12.75246 17660 ft 301 kts 127°
2026-04-15 13:02 38.68687 12.77374 17296 ft 297 kts 128°
2026-04-15 13:02 38.67454 12.79487 16933 ft 296 kts 128°
2026-04-15 13:03 38.66224 12.81592 16574 ft 294 kts 129°
2026-04-15 13:03 38.65001 12.83671 16218 ft 291 kts 129°
2026-04-15 13:03 38.63783 12.85731 15864 ft 289 kts 129°
2026-04-15 13:03 38.62573 12.87771 15513 ft 287 kts 129°
2026-04-15 13:04 38.61373 12.89799 15165 ft 285 kts 129°
2026-04-15 13:04 38.60180 12.91817 14818 ft 284 kts 129°
2026-04-15 13:04 38.58982 12.93848 14171 ft 291 kts 129°
2026-04-15 13:04 38.57741 12.95946 13388 ft 302 kts 129°
2026-04-15 13:05 38.56449 12.98127 12578 ft 311 kts 129°
2026-04-15 13:05 38.55126 13.00358 11783 ft 318 kts 129°
2026-04-15 13:05 38.53800 13.02597 11300 ft 314 kts 129°
2026-04-15 13:05 38.52512 13.04779 11080 ft 298 kts 129°
2026-04-15 13:06 38.51290 13.06851 10638 ft 287 kts 129°
2026-04-15 13:06 38.50094 13.08870 10027 ft 284 kts 129°
2026-04-15 13:06 38.48920 13.10851 9588 ft 276 kts 128°
2026-04-15 13:06 38.47772 13.12789 9241 ft 272 kts 128°
2026-04-15 13:07 38.46636 13.14700 8909 ft 268 kts 128°
2026-04-15 13:07 38.45517 13.16583 8568 ft 264 kts 128°
2026-04-15 13:07 38.44412 13.18442 8241 ft 262 kts 128°
2026-04-15 13:07 38.43318 13.20282 7919 ft 258 kts 128°
2026-04-15 13:08 38.42236 13.22096 7595 ft 255 kts 128°
2026-04-15 13:08 38.41170 13.23886 7279 ft 252 kts 128°
2026-04-15 13:08 38.40114 13.25652 6966 ft 249 kts 128°
2026-04-15 13:08 38.39069 13.27400 6656 ft 246 kts 128°
2026-04-15 13:09 38.38044 13.29116 6349 ft 240 kts 128°
2026-04-15 13:09 38.37051 13.30780 6040 ft 233 kts 128°
2026-04-15 13:09 38.36077 13.32410 5636 ft 230 kts 128°
2026-04-15 13:09 38.35118 13.34031 5221 ft 228 kts 127°
2026-04-15 13:10 38.34171 13.35648 4778 ft 227 kts 127°
2026-04-15 13:10 38.33227 13.37261 4334 ft 228 kts 127°
2026-04-15 13:10 38.32279 13.38879 3998 ft 226 kts 127°
2026-04-15 13:10 38.31321 13.40461 3634 ft 225 kts 134°
2026-04-15 13:11 38.29979 13.41348 3515 ft 222 kts 174°
2026-04-15 13:11 38.28478 13.40891 3511 ft 230 kts 214°
2026-04-15 13:11 38.27490 13.39283 3517 ft 236 kts 242°
2026-04-15 13:11 38.26843 13.37409 3514 ft 223 kts 247°
2026-04-15 13:12 38.26343 13.35636 3515 ft 203 kts 250°
2026-04-15 13:12 38.25880 13.33988 3521 ft 196 kts 246°
2026-04-15 13:12 38.25371 13.32384 3404 ft 195 kts 245°
2026-04-15 13:12 38.24848 13.30802 3183 ft 193 kts 245°
2026-04-15 13:13 38.24325 13.29233 2930 ft 192 kts 245°
2026-04-15 13:13 38.23804 13.27671 2685 ft 191 kts 245°
2026-04-15 13:13 38.23285 13.26117 2431 ft 190 kts 245°
2026-04-15 13:13 38.22774 13.24590 2186 ft 187 kts 245°
2026-04-15 13:14 38.22272 13.23085 1954 ft 183 kts 245°
2026-04-15 13:14 38.21772 13.21592 1702 ft 183 kts 245°
2026-04-15 13:14 38.21293 13.20163 1457 ft 166 kts 245°
2026-04-15 13:14 38.20867 13.18891 1253 ft 147 kts 245°
2026-04-15 13:15 38.20482 13.17739 1057 ft 138 kts 246°
2026-04-15 13:15 38.20108 13.16620 862 ft 137 kts 246°
2026-04-15 13:15 38.19736 13.15510 688 ft 136 kts 246°
2026-04-15 13:15 38.19362 13.14399 520 ft 137 kts 246°
2026-04-15 13:16 38.18985 13.13277 332 ft 139 kts 246°
2026-04-15 13:16 38.18602 13.12139 132 ft 141 kts 245°
2026-04-15 13:16 38.18232 13.11049 53 ft 122 kts 246°
2026-04-15 13:16 38.17962 13.10249 53 ft 80 kts 247°
2026-04-15 13:17 38.17771 13.09671 53 ft 65 kts 247°
2026-04-15 13:17 38.17605 13.09174 53 ft 58 kts 247°
2026-04-15 13:17 38.17491 13.08837 53 ft 19 kts 247°
2026-04-15 13:17 38.17537 13.08763 53 ft 14 kts 21°
2026-04-15 13:18 38.17621 13.08837 53 ft 16 kts 36°
2026-04-15 13:18 38.17702 13.08916 53 ft 10 kts 38°
2026-04-15 13:18 38.17751 13.08989 53 ft 12 kts 63°
2026-04-15 13:18 38.17780 13.09076 53 ft 12 kts 67°
2026-04-15 13:19 38.17815 13.09179 53 ft 14 kts 67°
2026-04-15 13:19 38.17855 13.09299 53 ft 16 kts 67°
2026-04-15 13:19 38.17900 13.09434 53 ft 18 kts 67°
2026-04-15 13:19 38.17949 13.09579 53 ft 17 kts 67°
2026-04-15 13:20 38.17984 13.09683 53 ft 11 kts 67°
2026-04-15 13:20 38.18013 13.09770 52 ft 10 kts 67°
2026-04-15 13:20 38.18025 13.09806 51 ft 0 kts 67°
2026-04-15 13:20 38.18027 13.09812 53 ft 3 kts 67°
2026-04-15 13:21 38.18050 13.09878 53 ft 13 kts 66°
2026-04-15 13:21 38.18098 13.10022 53 ft 20 kts 67°
2026-04-15 13:21 38.18149 13.10185 52 ft 19 kts 64°
2026-04-15 13:21 38.18194 13.10315 51 ft 12 kts 66°
2026-04-15 13:22 38.18245 13.10366 53 ft 5 kts 359°
2026-04-15 13:22 38.18267 13.10364 53 ft 5 kts
2026-04-15 13:22 38.18304 13.10401 53 ft 9 kts 64°
2026-04-15 13:22 38.18335 13.10469 53 ft 8 kts 41°
2026-04-15 13:23 38.18385 13.10500 53 ft 9 kts 19°
2026-04-15 13:23 38.18421 13.10516 53 ft 2 kts 21°
2026-04-15 13:23 38.18434 13.10526 53 ft 3 kts 35°
2026-04-15 13:23 38.18456 13.10549 53 ft 4 kts 24°
2026-04-15 13:24 38.18478 13.10541 53 ft 4 kts 332°
2026-04-15 13:24 38.18510 13.10511 53 ft 5 kts 324°
2026-04-15 13:24 38.18525 13.10498 53 ft 1 kts 324°